GW6391 Weather Reports


Display with metric or nautical units.
time (UTC)temp
F
wind
direction
speed
MPH
gust
MPH
rain 1hr
in
rain 24hr
in
rain mn
in
humidity
%
barometer
mb
20260504035515 58 9 18.0 22.0 0.00 0.00 0.00 35 1009.6
20260504035013 58 352 8.0 12.0 0.00 0.00 0.00 37 1009.4
20260504034535 58 360 5.0 9.0 0.00 0.00 0.00 37 1009.1
20260504034010 58 340 5.0 10.0 0.00 0.00 0.00 36 1008.9
20260504033513 59 348 8.0 12.0 0.00 0.00 0.00 36 1008.8
20260504033036 59 338 9.0 12.0 0.00 0.00 0.00 35 1008.8
20260504032504 59 348 8.0 13.0 0.00 0.00 0.00 35 1008.7
20260504032013 60 352 9.0 13.0 0.00 0.00 0.00 34 1008.7
20260504031536 60 343 9.0 13.0 0.00 0.00 0.00 34 1008.6
20260504031010 60 342 9.0 13.0 0.00 0.00 0.00 34 1008.6
20260504030513 60 342 9.0 15.0 0.00 0.00 0.00 34 1008.7
20260504030038 60 351 8.0 15.0 0.00 0.00 0.00 33 1008.5
20260504025511 61 360 9.0 13.0 0.00 0.00 0.00 33 1008.5
20260504025010 61 346 9.0 13.0 0.00 0.00 0.00 32 1008.5
20260504024526 62 345 9.0 14.0 0.00 0.00 0.00 32 1008.3
20260504024014 62 336 10.0 14.0 0.00 0.00 0.00 32 1008.2
20260504023506 62 336 9.0 15.0 0.00 0.00 0.00 31 1008.2
20260504023057 63 346 10.0 15.0 0.00 0.00 0.00 30 1008.5
20260504022511 64 352 10.0 15.0 0.00 0.00 0.00 30 1008.3
20260504022011 64 336 12.0 17.0 0.00 0.00 0.00 30 1008.2
20260504021539 65 348 12.0 17.0 0.00 0.00 0.00 29 1008.2
20260504021013 65 338 12.0 17.0 0.00 0.00 0.00 28 1008.1
20260504020512 66 360 11.0 16.0 0.00 0.00 0.00 26 1008.0
20260504020032 66 352 11.0 19.0 0.00 0.00 0.00 26 1008.0
20260504015510 67 334 14.0 20.0 0.00 0.00 0.00 25 1008.1
20260504015013 67 338 14.0 21.0 0.00 0.00 0.00 25 1008.0
20260504014532 68 340 15.0 21.0 0.00 0.00 0.00 24 1007.9
20260504014012 69 334 15.0 20.0 0.00 0.00 0.00 24 1007.8
20260504013512 70 331 14.0 20.0 0.00 0.00 0.00 21 1008.0
20260504013039 71 320 12.0 20.0 0.00 0.00 0.00 21 1007.8
20260504012514 72 328 14.0 20.0 0.00 0.00 0.00 21 1007.8
20260504012013 72 346 13.0 21.0 0.00 0.00 0.00 21 1007.7
20260504011541 73 342 16.0 21.0 0.00 0.00 0.00 20 1007.7
20260504011010 73 321 14.0 21.0 0.00 0.00 0.00 21 1007.7
20260504010511 73 315 16.0 21.0 0.00 0.00 0.00 21 1007.8
20260504010035 73 310 14.0 20.0 0.00 0.00 0.00 21 1007.7
20260504005511 73 321 12.0 19.0 0.00 0.00 0.00 20 1007.9
20260504005013 73 296 13.0 22.0 0.00 0.00 0.00 20 1007.8
20260504004515 73 305 15.0 22.0 0.00 0.00 0.00 20 1007.7
20260504004012 74 288 14.0 21.0 0.00 0.00 0.00 20 1007.8
20260504003514 74 302 15.0 24.0 0.00 0.00 0.00 20 1007.9
20260504003055 74 300 17.0 25.0 0.00 0.00 0.00 20 1007.9
20260504002511 74 313 14.0 21.0 0.00 0.00 0.00 20 1008.1
20260504002015 74 292 15.0 24.0 0.00 0.00 0.00 19 1008.1
20260504001539 74 290 17.0 23.0 0.00 0.00 0.00 20 1008.1
20260504001013 74 290 17.0 22.0 0.00 0.00 0.00 20 1008.1
20260504000513 75 292 13.0 24.0 0.00 0.00 0.00 20 1008.3
20260504000035 75 291 15.0 24.0 0.00 0.00 0.00 19 1008.1
20260503235511 75 296 15.0 22.0 0.00 0.00 0.00 20 1008.3
20260503235013 75 293 15.0 29.0 0.00 0.00 0.00 20 1008.4
20260503234535 75 300 19.0 29.0 0.00 0.00 0.00 20 1008.2
20260503234014 75 268 15.0 24.0 0.00 0.00 0.00 19 1008.2
20260503233510 75 302 15.0 23.0 0.00 0.00 0.00 20 1008.3
20260503233040 75 272 16.0 23.0 0.00 0.00 0.00 19 1008.2
20260503232511 75 292 16.0 28.0 0.00 0.00 0.00 19 1008.3
20260503232012 75 271 11.0 29.0 0.00 0.00 0.00 19 1008.2
20260503231533 75 296 14.0 22.0 0.00 0.00 0.00 19 1008.2
20260503231014 75 296 14.0 24.0 0.00 0.00 0.00 19 1008.3
20260503230510 75 315 16.0 24.0 0.00 0.00 0.00 19 1008.3
20260503230035 75 298 17.0 26.0 0.00 0.00 0.00 19 1008.5
20260503225510 76 277 16.0 26.0 0.00 0.00 0.00 19 1008.2
20260503225014 75 296 13.0 25.0 0.00 0.00 0.00 19 1008.6
20260503224533 75 293 15.0 27.0 0.00 0.00 0.00 19 1008.6
20260503224013 75 283 13.0 27.0 0.00 0.00 0.00 19 1008.7
20260503223509 75 296 15.0 21.0 0.00 0.00 0.00 19 1008.7
20260503223034 76 288 16.0 26.0 0.00 0.00 0.00 19 1008.7
20260503222513 75 281 18.0 26.0 0.00 0.00 0.00 18 1008.9
20260503222012 75 301 13.0 26.0 0.00 0.00 0.00 19 1008.8
20260503221539 75 280 15.0 24.0 0.00 0.00 0.00 18 1008.9
20260503221012 75 280 17.0 26.0 0.00 0.00 0.00 18 1008.8
20260503220519 76 284 16.0 26.0 0.00 0.00 0.00 18 1009.0
20260503220035 75 276 15.0 25.0 0.00 0.00 0.00 18 1009.1
20260503215512 75 310 12.0 24.0 0.00 0.00 0.00 19 1009.1
20260503215013 75 281 15.0 24.0 0.00 0.00 0.00 19 1009.1
20260503214535 75 292 14.0 24.0 0.00 0.00 0.00 19 1009.2
20260503214016 75 257 15.0 24.0 0.00 0.00 0.00 18 1009.4
20260503213511 75 305 12.0 21.0 0.00 0.00 0.00 19 1009.5
20260503213035 76 252 14.0 21.0 0.00 0.00 0.00 18 1009.5
20260503212516 75 284 11.0 23.0 0.00 0.00 0.00 19 1009.6
20260503212011 75 288 16.0 23.0 0.00 0.00 0.00 18 1009.5
20260503211531 75 298 15.0 23.0 0.00 0.00 0.00 18 1009.6
20260503211020 74 264 14.0 24.0 0.00 0.00 0.00 19 1009.7
20260503210510 74 287 16.0 23.0 0.00 0.00 0.00 19 1009.9
20260503210034 75 269 16.0 25.0 0.00 0.00 0.00 18 1009.9
20260503205512 75 296 18.0 25.0 0.00 0.00 0.00 18 1009.8
20260503205011 74 271 9.0 25.0 0.00 0.00 0.00 18 1010.0
20260503204534 75 271 16.0 25.0 0.00 0.00 0.00 18 1010.0
20260503204016 74 284 14.0 25.0 0.00 0.00 0.00 18 1010.2
20260503203516 75 297 17.0 25.0 0.00 0.00 0.00 18 1010.1
20260503203035 74 274 14.0 22.0 0.00 0.00 0.00 18 1010.1
20260503202513 75 275 14.0 21.0 0.00 0.00 0.00 18 1010.0
20260503202012 74 269 10.0 24.0 0.00 0.00 0.00 19 1010.2
20260503201535 74 276 13.0 24.0 0.00 0.00 0.00 19 1010.3
20260503201008 74 290 13.0 21.0 0.00 0.00 0.00 19 1010.2
20260503200513 74 263 10.0 25.0 0.00 0.00 0.00 19 1010.6
20260503200035 74 298 15.0 25.0 0.00 0.00 0.00 19 1010.7
20260503195513 74 280 14.0 24.0 0.00 0.00 0.00 18 1010.8
20260503195013 74 268 18.0 24.0 0.00 0.00 0.00 18 1010.6
20260503194535 74 269 14.0 21.0 0.00 0.00 0.00 19 1010.9
20260503194011 73 281 13.0 24.0 0.00 0.00 0.00 19 1010.9
20260503193517 73 267 15.0 24.0 0.00 0.00 0.00 19 1010.8
20260503193040 72 301 8.0 21.0 0.00 0.00 0.00 20 1010.9
20260503192513 74 275 14.0 21.0 0.00 0.00 0.00 19 1011.1
20260503192011 74 246 12.0 22.0 0.00 0.00 0.00 19 1011.1
20260503191533 72 268 16.0 24.0 0.00 0.00 0.00 19 1010.9
20260503191014 72 245 17.0 24.0 0.00 0.00 0.00 19 1011.1
20260503190513 73 278 13.0 20.0 0.00 0.00 0.00 18 1011.2
20260503190042 73 319 15.0 20.0 0.00 0.00 0.00 19 1011.2
20260503185506 73 290 8.0 20.0 0.00 0.00 0.00 18 1011.3
20260503185017 73 267 13.0 22.0 0.00 0.00 0.00 19 1011.3
20260503184534 73 250 15.0 22.0 0.00 0.00 0.00 18 1011.2
20260503184014 72 280 17.0 22.0 0.00 0.00 0.00 17 1011.3
20260503183512 73 244 15.0 21.0 0.00 0.00 0.00 19 1011.3
20260503183045 73 284 11.0 21.0 0.00 0.00 0.00 18 1011.4
20260503182512 73 290 15.0 21.0 0.00 0.00 0.00 18 1011.6
20260503182013 73 308 16.0 21.0 0.00 0.00 0.00 18 1011.6
20260503181520 73 284 13.0 22.0 0.00 0.00 0.00 18 1011.6
20260503181010 73 267 11.0 20.0 0.00 0.00 0.00 18 1011.8
20260503180514 72 277 14.0 22.0 0.00 0.00 0.00 19 1011.9
20260503180041 72 290 11.0 22.0 0.00 0.00 0.00 19 1011.9
20260503175511 72 274 13.0 22.0 0.00 0.00 0.00 18 1012.0
20260503175010 72 313 14.0 20.0 0.00 0.00 0.00 20 1012.0
20260503174541 73 309 13.0 20.0 0.00 0.00 0.00 20 1012.1
20260503174011 72 289 15.0 22.0 0.00 0.00 0.00 20 1012.2
20260503173514 72 308 14.0 18.0 0.00 0.00 0.00 20 1012.3
20260503173036 71 277 11.0 17.0 0.00 0.00 0.00 21 1012.4
20260503172511 71 277 12.0 17.0 0.00 0.00 0.00 21 1012.5
20260503172013 71 279 9.0 16.0 0.00 0.00 0.00 21 1012.5
20260503171525 70 270 10.0 17.0 0.00 0.00 0.00 22 1012.4
20260503171014 70 267 12.0 16.0 0.00 0.00 0.00 21 1012.5
20260503170514 70 257 9.0 14.0 0.00 0.00 0.00 22 1012.4
20260503150514 62 284 9.0 13.0 0.00 0.00 0.00 40 1013.4
20260503131014 44 136 2.0 5.0 0.00 0.00 0.00 79 1013.5
20260503130518 44 126 3.0 6.0 0.00 0.00 0.00 78 1013.6
20260503110519 38 134 5.0 7.0 0.00 0.00 0.00 78 1014.7
20260503090512 39 229 0.0 2.0 0.00 0.00 0.00 77 1015.3
20260503081530 43 233 4.0 6.0 0.00 0.00 0.00 70 1015.7
20260503081011 43 260 5.0 7.0 0.00 0.00 0.00 70 1015.8
20260503080511 43 251 4.0 8.0 0.00 0.00 0.00 69 1015.8
20260503072512 43 269 2.0 4.0 0.00 0.00 0.00 62 1016.0
20260503072011 43 246 2.0 3.0 0.00 0.00 0.00 65 1016.0
20260503071534 43 246 1.0 5.0 0.00 0.00 0.00 64 1016.1
20260503071018 42 246 4.0 5.0 0.00 0.00 0.00 66 1016.1
20260503070512 42 246 3.0 4.0 0.00 0.00 0.00 66 1016.2
20260503055011 42 153 1.0 3.0 0.00 0.00 0.00 60 1016.4
20260503054503 43 153 1.0 3.0 0.00 0.00 0.00 59 1016.3
20260503054011 43 153 2.0 3.0 0.00 0.00 0.00 60 1016.3
20260503053512 43 153 1.0 2.0 0.00 0.00 0.00 59 1016.3
20260503053028 43 153 1.0 3.0 0.00 0.00 0.00 59 1016.2
20260503052511 44 153 2.0 3.0 0.00 0.00 0.00 57 1016.2
20260503052014 44 153 2.0 3.0 0.00 0.00 0.00 59 1016.2
20260503051529 43 153 1.0 2.0 0.00 0.00 0.00 60 1016.1
20260503051015 43 153 1.0 2.0 0.00 0.00 0.00 59 1016.2
20260503050510 43 153 1.0 2.0 0.00 0.00 0.00 58 1016.2
20260503050029 44 153 1.0 2.0 0.00 0.00 0.00 56 1016.2
20260503045511 44 153 0.0 3.0 0.00 0.00 0.00 56 1016.3
20260503045014 45 153 2.0 3.0 0.00 0.00 0.00 53 1016.2
20260503044538 46 153 2.0 3.0 0.00 0.00 0.00 51 1016.1
20260503044015 48 153 1.0 3.0 0.00 0.00 0.00 50 1016.2
20260503043510 49 153 1.0 3.0 0.00 0.00 0.00 48 1016.2
20260503043011 50 153 1.0 3.0 0.00 0.00 0.00 46 1016.4
20260503042510 51 153 1.0 3.0 0.00 0.00 0.00 48 1016.4
20260503042010 51 107 0.0 1.0 0.00 0.00 0.00 50 1016.5
20260503041532 50 107 0.0 1.0 0.00 0.00 0.00 49 1016.4
20260503041009 50 107 0.0 2.0 0.00 0.00 0.00 49 1016.3
20260503040509 51 107 0.0 2.0 0.00 0.00 0.00 47 1016.4
20260503040035 51 107 1.0 6.0 0.00 0.00 0.00 48 1016.3